TimeEDT,TemperatureF,Dew PointF,Humidity,Sea Level PressureIn,VisibilityMPH,Wind Direction,Wind SpeedMPH,Gust SpeedMPH,PrecipitationIn,Events,Conditions,WindDirDegrees,DateUTC
12:53 AM,43.0,32.0,65,30.43,10.0,Calm,Calm,-,N/A,,Overcast,0,2013-04-23 04:53:00
1:53 AM,41.0,33.1,73,30.41,10.0,ENE,4.6,-,N/A,,Mostly Cloudy,70,2013-04-23 05:53:00
2:01 AM,42.8,33.8,70,30.40,10.0,East,3.5,-,N/A,,Overcast,90,2013-04-23 06:01:00
2:53 AM,43.0,33.1,68,30.38,10.0,NE,3.5,-,N/A,,Overcast,40,2013-04-23 06:53:00
3:53 AM,43.0,34.0,71,30.38,10.0,ENE,3.5,-,N/A,,Overcast,60,2013-04-23 07:53:00
4:53 AM,43.0,35.1,74,30.36,10.0,NE,3.5,-,N/A,,Overcast,40,2013-04-23 08:53:00
5:20 AM,42.8,35.6,76,30.34,10.0,ENE,3.5,-,N/A,,Overcast,70,2013-04-23 09:20:00
6:30 AM,42.8,35.6,76,30.33,10.0,NNE,3.5,-,N/A,,Overcast,30,2013-04-23 10:30:00
6:53 AM,43.0,37.0,80,30.35,10.0,Calm,Calm,-,N/A,,Overcast,0,2013-04-23 10:53:00
7:53 AM,44.1,37.0,76,30.35,10.0,East,5.8,-,N/A,,Overcast,80,2013-04-23 11:53:00
8:53 AM,45.0,37.0,74,30.34,10.0,East,8.1,-,N/A,,Overcast,80,2013-04-23 12:53:00
9:02 AM,44.6,35.6,71,30.32,10.0,East,10.4,-,N/A,,Overcast,100,2013-04-23 13:02:00
9:53 AM,46.0,36.0,68,30.33,10.0,ENE,6.9,-,N/A,,Overcast,70,2013-04-23 13:53:00
10:53 AM,48.0,36.0,63,30.32,10.0,ENE,6.9,-,N/A,,Overcast,70,2013-04-23 14:53:00
11:53 AM,51.1,37.0,59,30.28,10.0,East,10.4,-,N/A,,Overcast,90,2013-04-23 15:53:00
12:53 PM,53.1,37.0,55,30.28,10.0,NE,5.8,-,N/A,,Overcast,50,2013-04-23 16:53:00
1:53 PM,53.1,37.0,55,30.27,10.0,NNW,5.8,-,N/A,,Overcast,340,2013-04-23 17:53:00
2:53 PM,55.0,37.0,51,30.25,10.0,Calm,Calm,-,N/A,,Partly Cloudy,0,2013-04-23 18:53:00
3:53 PM,55.9,36.0,47,30.21,10.0,Calm,Calm,-,N/A,,Clear,0,2013-04-23 19:53:00
4:53 PM,57.0,36.0,45,30.18,10.0,Calm,Calm,-,N/A,,Clear,0,2013-04-23 20:53:00
5:53 PM,57.0,37.0,47,30.15,10.0,Calm,Calm,-,N/A,,Clear,0,2013-04-23 21:53:00
6:53 PM,57.9,37.0,46,30.15,10.0,Calm,Calm,-,N/A,,Clear,0,2013-04-23 22:53:00
7:53 PM,52.0,39.0,61,30.14,10.0,ENE,3.5,-,N/A,,Clear,60,2013-04-23 23:53:00
8:53 PM,45.0,39.0,80,30.16,10.0,Calm,Calm,-,N/A,,Clear,0,2013-04-24 00:53:00
9:53 PM,43.0,37.9,82,30.17,10.0,Calm,Calm,-,N/A,,Clear,0,2013-04-24 01:53:00
10:53 PM,41.0,37.9,89,30.15,10.0,Calm,Calm,-,N/A,,Clear,0,2013-04-24 02:53:00
11:53 PM,43.0,37.9,82,30.13,10.0,SE,4.6,-,N/A,,Clear,140,2013-04-24 03:53:00